Torna al catalogo

LEMUR 2 CHRIS

LostScienzaLEO
NORAD 40933·PAYLOAD·🇺🇸 United States

Lanciato Sep 28, 2015 da Satish Dhawan Space Centre

Loading…

Prossimi Passaggi (prossime 24 ore)

TLE

ObsoletoSource: Space-Track

Epoca: Feb 19, 2024, 08:18 UTC

1 40933U 15052D   24050.34614090  .00008209  00000-0  86789-3 0  9990
2 40933   6.0022  57.3568 0012335 326.7853  33.1501 14.84525301454530

Traccia LEMUR 2 CHRIS in tempo reale con AllMySat

Download on the App Store